Meteo Giornale » Osservazioni meteo Stati Uniti (USA) » Menominee
ore: 17:57 - Osservazioni Meteo Menominee
Lat. 45° 8' N Lon. 87° 38' W Alt. 191 metri s.l.m.
28 °C
Sereno
Temp. 24 Ore
21 °C
29 °C
Nord
0 Km/h
Dew point 24 °C
Umidità 78 %
Visibilità 10 Km
Il sole sorge alle ore 06:11
Il sole tramonta alle ore 19:29
| Data e Ora | Cielo e Fenomeni | T °C | DP °C | Um. % | Pres. hPa | Vis. km | Vento km/h | |
|---|---|---|---|---|---|---|---|---|
| Oggi h: 17:57 | Sereno | 28 | 24 | 78 | 1010 | 10 | N 0 | |
| Oggi h: 16:57 | Sereno | 29 | 23 | 70 | 1010 | 10 | O 7.4 | |
| Oggi h: 15:57 | Sereno | 29 | 23 | 70 | 1010 | 10 | N 7.4 | |
| Oggi h: 14:57 | Foschia | 29 | 23 | 70 | 1010 | 10 | O/SO 9.3 | |
| Oggi h: 13:57 | Nuvoloso | 28 | 23 | 74 | 1010 | 10 | E 13 | |
| Oggi h: 12:57 | Poco Nuvoloso | 28 | 22 | 69 | 1010 | 10 | N 5.5 | |
| Oggi h: 12:41 | Nuvoloso | 27 | 22 | 74 | 1010 | 10 | N 5.5 | |
| Oggi h: 12:29 | Molto Nuvoloso | 28 | 22 | 69 | 1010 | 13 | SO 9.3 | |
| Oggi h: 11:57 | Poco Nuvoloso | 26 | 22 | 78 | 1010 | 10 | S/SE 9.3 | |
| Oggi h: 11:35 | Nuvoloso | 26 | 22 | 78 | 1010 | 10 | S/SE 11.1 | |
| Oggi h: 10:57 | Molto Nuvoloso | 24 | 22 | 88 | 1011 | 10 | S/SE 18.5 | |
| Oggi h: 09:57 | Coperto | 23 | 22 | 94 | 1011 | 10 | S/SE 18.5 | |
| Oggi h: 09:38 | Molto Nuvoloso | 24 | 22 | 88 | 1011 | 10 | S/SE 24 | |
| Oggi h: 09:25 | Nuvoloso | 23 | 22 | 94 | 1011 | 10 | S/SE 20.3 | |
| Oggi h: 09:17 | Molto Nuvoloso | 23 | 22 | 94 | 1011 | 10 | S/SE 24 | |
| Oggi h: 08:57 | Coperto | 23 | 22 | 94 | 1012 | 10 | S/SE 18.5 | |
| Oggi h: 08:32 | Coperto | 22 | 22 | 100 | 1012 | 14 | SE 18.5 | |
| Oggi h: 07:57 | Foschia | 22 | 22 | 100 | 1012 | 6 | S/SE 14.8 | |
| Oggi h: 06:57 | Foschia | 21 | 21 | 100 | 1012 | 6 | SE 13 | |
| Oggi h: 06:52 | Foschia | 21 | 21 | 100 | 1012 | 5 | SE 11.1 | |
| Oggi h: 06:20 | Foschia | 21 | 21 | 100 | 1012 | 2 | E/SE 13 | |
| Oggi h: 05:57 | Pioggia Foschia | 21 | 21 | 100 | 1012 | 8 | E/SE 9.3 | |
| Oggi h: 04:57 | Pioggia Foschia | 21 | 21 | 100 | 1012 | 6 | E 11.1 | |
| Oggi h: 04:46 | Pioggia Foschia | 21 | 21 | 100 | 1012 | 6 | E/NE 11.1 | |
| Oggi h: 04:21 | Temporale nelle vicinanze Pioggia | 21 | 21 | 100 | 1013 | 8 | N 5.5 | |
| Oggi h: 03:57 | Foschia | 21 | 21 | 100 | 1012 | 8 | SE 13 | |
| Oggi h: 02:57 | Foschia | 21 | 21 | 100 | 1014 | 10 | E/NE 14.8 | |
| Oggi h: 02:42 | Foschia | 21 | 21 | 100 | 1014 | 10 | E 14.8 | |
| Oggi h: 01:57 | Foschia | 21 | 21 | 100 | 1014 | 10 | E/NE 7.4 | |
| Oggi h: 00:57 | Coperto | 21 | 21 | 100 | 1014 | 14 | N 5.5 | |
| Oggi h: 00:44 | Molto Nuvoloso | 21 | 21 | 100 | 1014 | 13 | E/NE 7.4 | |
| Oggi h: 00:08 | Foschia | 21 | 21 | 100 | 1014 | 8 | E/NE 11.1 | |
| Ieri h: 23:57 | Foschia | 21 | 21 | 100 | 1014 | 8 | E/NE 11.1 | |
| Ieri h: 23:42 | Foschia | 21 | 21 | 100 | 1014 | 8 | N 5.5 | |
| Ieri h: 22:57 | Foschia | 21 | 21 | 100 | 1014 | 10 | E/NE 7.4 | |
| Ieri h: 22:54 | Foschia | 21 | 21 | 100 | 1014 | 10 | E/NE 9.3 | |
| Ieri h: 21:57 | Coperto | 21 | 21 | 100 | 1014 | 10 | E/NE 9.3 | |
| Ieri h: 21:51 | Coperto | 21 | 21 | 100 | 1014 | 14 | E/NE 9.3 | |
| Ieri h: 21:43 | Coperto | 21 | 21 | 100 | 1014 | 14 | N 5.5 | |
| Ieri h: 20:57 | Coperto | 21 | 21 | 100 | 1014 | 10 | E/NE 9.3 | |
| Ieri h: 19:57 | Coperto | 22 | 22 | 100 | 1014 | 10 | E 7.4 | |
| Ieri h: 18:57 | Sereno | 22 | 21 | 94 | 1013 | 10 | E/NE 11.1 | |



